Presure
280 289 269 251 245 243 243 238 233 234 230 223 220 219 232 230 229 227 229 240 242 265 253 249 251 255 251
314 277 282 257 263 239 239 232 242 239 234 249 232 240 239 238 247 245 242 265 263 254 259 264 258 260 256
305 299 292 283 275 266 252 241 247 254 258 255 261 265 262 267 281 275 272 255 247 206 205 205 204 203 205
286 287 290 292 295 306 300 304 304 301 301 298 292 289 286 248 224 200 222 226 232 236 238 241 243 248 250
235 235 233 235 245 238 236 234 235 235 238 237 236 239 239 241 242 241 241 239 239 240 239 240 240 240 240
227 226 224 221 216 216 221 230 229 223 235 240 241 244 243 244 243 243 250 257 265 272 273 273 271 276 276
225 227 238 215 233 239 240 237 245 252 241 241 238 243 254 259 262 268 278 291 280 274 278 283 293 294 294
232 234 236 239 238 250 247 232 241 239 241 254 264 280 311 319 330 297 276 288 316 359 361 399 389 388 391
235 242 247 251 253 233 235 247 374 325 305 279 281 260 275 284 298 355 360 344 335 358 353 353 360 349 348
249 254 239 228 231 248 345 286 260 272 270 277 377 360 343 348 360 344 356 344 336 329 337 337 335 331 320
232 226 229 237 253 304 278 259 264 292 294 359 342 331 319 331 349 347 333 357 361 344 329 327 325 325 342
216 233 246 272 301 281 259 260 287 289 371 339 320 310 310 335 327 329 370 351 334 314 346 330 307 307 282
237 245 268 310 281 252 265 288 282 386 359 325 305 296 333 320 315 369 337 332 317 331 315 298 278 268 271
252 255 324 250 263 270 280 278 331 384 359 312 294 342 323 314 365 337 316 298 331 300 278 268 266 260 264
301 327 261 260 281 272 272 282 358 381 357 306 362 339 316 361 336 309 297 317 302 275 268 274 273 273 273
303 254 261 282 275 277 285 345 344 360 359 303 365 332 312 361 307 299 315 296 274 271 262 261 265 255 265
266 268 285 286 273 279 284 346 337 369 363 319 291 320 330 335 345 308 282 275 265 263 254 257 260 255 253
Wind_Speed
91 84 90 90 89 85 88 84 84 87 92 98 99 100 102 97 98 96 101 99 96 79 75 73 71 70 72
64 84 81 87 86 80 83 82 85 86 92 95 98 102 101 102 102 103 100 96 84 77 75 74 73 71 69
47 62 67 74 77 82 82 83 88 89 95 94 101 102 102 102 95 91 84 76 74 60 61 63 65 67 68
35 40 47 54 61 70 74 79 82 80 80 80 80 82 82 73 68 63 67 70 72 74 76 78 79 81 81
33 33 34 36 39 42 47 50 52 55 60 61 65 69 69 71 72 73 74 75 76 78 80 81 82 83 84
37 39 41 44 48 51 54 56 59 61 67 66 72 74 74 75 76 76 79 83 88 92 93 94 94 96 96
44 46 49 53 53 58 61 61 65 69 74 72 75 79 84 86 88 90 93 96 89 88 89 90 90 91 92
55 57 59 62 64 69 70 69 74 75 80 87 89 95 91 91 87 83 82 88 82 60 57 42 44 43 42
61 64 67 69 70 71 76 81 66 70 72 75 76 79 86 85 87 60 54 55 54 42 42 40 35 40 41
66 68 68 71 74 78 66 69 73 76 76 81 52 51 59 58 48 46 39 36 38 38 34 33 34 32 34
66 70 74 77 78 68 70 71 75 79 79 48 51 50 49 50 46 38 35 30 22 23 25 27 28 27 20
73 75 76 80 69 67 69 74 77 77 46 43 47 48 48 41 42 37 29 19 19 22 17 8 14 15 24
74 74 79 64 65 69 74 74 75 52 42 39 44 47 37 38 39 34 21 20 16 10 9 11 15 22 25
74 74 61 67 69 72 72 74 69 49 40 36 41 32 35 33 27 19 16 20 18 9 12 14 14 23 27
75 59 64 70 67 68 70 71 60 47 41 36 33 29 31 26 19 17 20 17 12 10 13 11 10 16 18
60 63 70 67 66 66 68 68 57 48 40 35 33 27 29 25 17 20 18 12 11 9 14 17 13 21 21
70 71 68 65 66 66 68 67 56 47 40 32 32 25 28 26 18 24 16 13 12 10 14 15 14 17 22
Wind_Direction
268 265 265 272 274 275 277 277 276 276 276 278 282 284 282 285 286 287 286 287 288 284 281 279 275 273 271
260 261 262 267 269 273 275 274 275 272 274 272 275 278 279 280 280 279 283 281 281 279 278 276 273 272 271
277 270 267 270 268 269 272 275 276 274 271 273 274 275 275 276 277 277 278 278 275 273 270 268 265 263 262
294 286 279 275 274 270 272 272 272 273 275 276 278 279 278 279 279 278 279 279 280 280 279 278 276 275 273
325 317 309 302 296 295 291 291 290 291 289 287 287 284 283 283 282 282 281 280 279 277 275 273 272 271 270
309 306 303 298 292 290 290 292 290 287 288 288 286 284 284 283 282 282 283 284 282 282 281 279 278 278 278
309 306 310 292 301 303 302 297 298 297 294 291 289 289 290 290 290 289 289 287 285 283 282 280 280 279 279
316 315 313 310 307 306 303 300 300 298 297 294 293 288 288 286 286 287 287 287 286 282 278 275 274 273 271
314 314 313 311 308 306 303 301 300 296 294 294 294 292 293 292 289 289 288 286 284 280 279 277 272 274 276
316 312 310 307 306 304 303 303 302 303 303 300 298 294 293 293 293 291 290 286 281 280 279 276 276 277 272
313 309 308 307 307 306 304 304 305 305 305 301 298 295 292 294 296 297 294 290 274 274 274 271 270 273 277
308 310 310 313 309 308 307 307 307 308 306 301 296 295 297 294 295 301 305 281 277 273 303 255 265 279 283
309 311 316 310 312 309 310 309 310 315 304 297 294 294 290 292 297 298 282 285 289 272 245 272 279 286 292
312 312 312 315 315 312 310 310 318 314 303 292 292 286 284 291 291 272 268 281 298 251 267 276 286 282 286
315 314 315 317 313 312 311 312 321 312 303 294 304 284 285 288 266 261 270 283 238 252 280 289 274 281 289
317 318 319 315 315 313 316 324 319 312 300 296 302 283 285 277 257 263 261 235 228 239 272 286 293 297 311
323 320 317 317 316 317 320 324 318 312 298 299 293 277 285 273 274 221 213 229 245 238 279 288 293 291 307